Cleveland, OH

8:42 PM EDT on August 28, 2016 (GMT -0400)
Burke Lakefront

Weather History for KBKL - March, 2011

Change the Weather History Date:

Monday, March 14, 2011

  Actual Average Record
Temperature  
Mean Temperature 32 °F -  
Max Temperature 34 °F 41 °F 77 °F (2012)
Min Temperature 30 °F 28 °F 19 °F (2003)
Degree Days  
Heating Degree Days 32    
Moisture  
Dew Point 27 °F    
Average Humidity 83    
Maximum Humidity 93    
Minimum Humidity 69    
Precipitation  
Precipitation 0.00 in - - ()
Sea Level Pressure  
Sea Level Pressure 30.40 in    
Wind  
Wind Speed 8 mph (NNE)    
Max Wind Speed 15 mph    
Max Gust Speed -    
Visibility 9 miles    
Events Snow    
Averages and records for this station are not official NWS values.
T = Trace of Precipitation, MM = Missing Value Source: NWS Daily Summary

Daily Weather History Graph

Daily Weather History Graph

Search for Another Location

Airport or City:

Trip Planner

Search our weather history database for the weather conditions in past years. The results will help you decide how hot, cold, wet, or windy it might be!

Date:

Astronomy

Mar. 14, 2011 Rise Set
Actual Time 7:40 AM EDT 7:31 PM EDT
Civil Twilight 7:13 AM EDT 7:59 PM EDT
Nautical Twilight 6:40 AM EDT 8:31 PM EDT
Astronomical Twilight 6:08 AM EDT 9:04 PM EDT
Moon 1:44 PM EDT (3/14) 4:06 AM EDT (3/14)
Length of Visible Light 12h 46m
Length of Day
11h 51m
Waxing Gibbous, 68% of the Moon is Illuminated
Mar 14
Waxing Gibbous
Mar 19
Full
Mar 26
Last Quarter
Apr 3
New
Apr 11
First Quarter

Hourly Weather History & Observations

Time (EDT) Temp. Windchill Dew Point Humidity Pressure Visibility Wind Dir Wind Speed Gust Speed Precip Events Conditions
12:10 AM 35.6 °F - 30.2 °F 81% 30.33 in 10.0 mi Calm Calm - N/A   Overcast
12:53 AM 34.0 °F - 30.9 °F 89% 30.36 in 10.0 mi Calm Calm - N/A   Overcast
1:53 AM 34.0 °F 31.0 °F 30.9 °F 89% 30.37 in 8.0 mi NW 3.5 mph - N/A   Overcast
2:25 AM 33.8 °F 26.4 °F 30.2 °F 87% 30.36 in 5.0 mi North 9.2 mph - 0.00 in Snow Light Snow
2:34 AM 33.8 °F 25.8 °F 30.2 °F 87% 30.36 in 3.0 mi North 10.4 mph - 0.00 in Snow Light Snow
2:53 AM 33.1 °F 23.0 °F 30.9 °F 92% 30.38 in 2.5 mi NNE 15.0 mph - 0.00 in Snow Light Snow
3:02 AM 32.0 °F 22.1 °F 30.2 °F 93% 30.36 in 3.0 mi NNE 13.8 mph - 0.00 in Snow Light Snow
3:34 AM 32.0 °F 22.5 °F 28.4 °F 87% 30.37 in 8.0 mi NNE 12.7 mph - 0.00 in Snow Light Snow
3:48 AM 32.0 °F 22.1 °F 28.4 °F 87% 30.37 in 10.0 mi NNE 13.8 mph - 0.00 in   Overcast
3:53 AM 32.0 °F 22.5 °F 28.9 °F 88% 30.39 in 10.0 mi NNE 12.7 mph - 0.00 in   Overcast
4:10 AM 30.2 °F 19.8 °F 28.4 °F 93% 30.37 in 9.0 mi NNE 13.8 mph - N/A   Overcast
4:29 AM 32.0 °F 24.2 °F 28.4 °F 87% 30.37 in 10.0 mi NE 9.2 mph - N/A   Overcast
4:53 AM 30.9 °F 23.5 °F 28.0 °F 89% 30.41 in 10.0 mi NNE 8.1 mph - N/A   Overcast
5:09 AM 30.2 °F 21.3 °F 28.4 °F 93% 30.39 in 10.0 mi NNE 10.4 mph - N/A   Overcast
5:24 AM 30.2 °F 21.9 °F 28.4 °F 93% 30.40 in 10.0 mi North 9.2 mph - N/A   Overcast
5:53 AM 30.9 °F 22.2 °F 28.0 °F 89% 30.42 in 10.0 mi NNE 10.4 mph - N/A   Overcast
6:09 AM 30.2 °F 19.8 °F 26.6 °F 86% 30.40 in 10.0 mi NNE 13.8 mph - N/A   Overcast
6:53 AM 30.9 °F 22.8 °F 26.1 °F 82% 30.42 in 10.0 mi NNE 9.2 mph - N/A   Overcast
7:53 AM 30.0 °F 23.2 °F 25.0 °F 82% 30.44 in 10.0 mi NNE 6.9 mph - N/A   Overcast
8:21 AM 30.2 °F 21.9 °F 24.8 °F 80% 30.42 in 10.0 mi North 9.2 mph - N/A   Mostly Cloudy
8:53 AM 30.0 °F 20.5 °F 24.1 °F 79% 30.45 in 10.0 mi NNE 11.5 mph - N/A   Clear
9:53 AM 30.9 °F 22.8 °F 23.0 °F 72% 30.47 in 10.0 mi NNE 9.2 mph - N/A   Clear
10:53 AM 32.0 °F 23.6 °F 23.0 °F 69% 30.48 in 10.0 mi NNE 10.4 mph - N/A   Clear
11:53 AM 32.0 °F 24.8 °F 24.1 °F 73% 30.49 in 10.0 mi NE 8.1 mph - N/A   Clear
12:53 PM 33.1 °F 25.5 °F 24.1 °F 70% 30.47 in 10.0 mi NNE 9.2 mph - N/A   Clear
1:53 PM 33.1 °F 23.4 °F 25.0 °F 72% 30.45 in 10.0 mi NNE 13.8 mph - N/A   Clear
2:53 PM 32.0 °F 23.0 °F 25.0 °F 75% 30.43 in 10.0 mi NNE 11.5 mph - N/A   Clear
3:53 PM 32.0 °F 22.1 °F 25.0 °F 75% 30.41 in 10.0 mi NNE 13.8 mph - N/A   Clear
4:53 PM 30.9 °F 21.2 °F 25.0 °F 79% 30.40 in 10.0 mi NE 12.7 mph - N/A   Clear
5:53 PM 30.9 °F 20.7 °F 25.0 °F 79% 30.39 in 10.0 mi NE 13.8 mph - N/A   Clear
6:53 PM 30.9 °F 20.7 °F 25.0 °F 79% 30.38 in 10.0 mi NE 13.8 mph - N/A   Clear
7:53 PM 30.9 °F 21.2 °F 26.1 °F 82% 30.39 in 10.0 mi NE 12.7 mph - N/A   Clear
8:53 PM 30.9 °F 22.2 °F 25.0 °F 79% 30.39 in 10.0 mi NE 10.4 mph - N/A   Clear
9:53 PM 30.9 °F 25.2 °F 25.0 °F 79% 30.40 in 10.0 mi NE 5.8 mph - N/A   Clear
10:53 PM 30.0 °F 22.4 °F 25.0 °F 82% 30.41 in 9.0 mi NE 8.1 mph - N/A   Clear
11:53 PM 30.0 °F 23.2 °F 25.0 °F 82% 30.40 in 10.0 mi ENE 6.9 mph - N/A   Clear